Time,TemperatureF,DewpointF,PressureIn,WindDirection,WindDirectionDegrees,WindSpeedMPH,WindSpeedGustMPH,Humidity,HourlyPrecipIn,Conditions,Clouds,dailyrainin,SoftwareType,DateUTC
2013-08-24 00:01:00,65.5,59.5,29.14,SW,225,0.0,0.0,81,0.00,,---,0.54,VWS V13.01,2013-08-24 04:01:00,
2013-08-24 00:02:00,65.5,59.5,29.14,SW,225,0.0,0.0,81,0.00,,---,0.54,VWS V13.01,2013-08-24 04:02:00,
2013-08-24 00:03:00,65.5,59.5,29.14,SW,225,0.0,0.0,81,0.00,,---,0.54,VWS V13.01,2013-08-24 04:03:00,
2013-08-24 00:16:00,64.9,59.0,29.14,SW,225,0.0,0.0,81,0.00,,---,0.00,VWS V13.01,2013-08-24 04:16:00,
2013-08-24 00:21:00,64.8,58.8,29.14,SW,225,0.0,0.0,81,0.00,,---,0.00,VWS V13.01,2013-08-24 04:21:00,
2013-08-24 00:26:00,64.8,58.8,29.14,SW,225,0.0,0.0,81,0.00,,---,0.00,VWS V13.01,2013-08-24 04:26:00,
2013-08-24 00:31:00,64.6,58.6,29.14,SW,225,0.0,0.0,81,0.00,,---,0.00,VWS V13.01,2013-08-24 04:31:00,
2013-08-24 00:36:00,64.4,58.5,29.14,SW,225,0.0,0.0,81,0.00,,---,0.00,VWS V13.01,2013-08-24 04:36:00,
2013-08-24 00:41:00,64.4,58.5,29.14,SW,225,0.0,0.0,81,0.00,,---,0.00,VWS V13.01,2013-08-24 04:41:00,
2013-08-24 00:46:00,64.2,58.3,29.14,SW,225,0.0,0.0,81,0.00,,---,0.00,VWS V13.01,2013-08-24 04:46:00,
2013-08-24 00:51:00,64.2,58.3,29.17,SW,225,0.0,0.0,81,0.00,,---,0.00,VWS V13.01,2013-08-24 04:51:00,
2013-08-24 00:56:00,64.2,58.3,29.17,SW,225,0.0,0.0,81,0.00,,---,0.00,VWS V13.01,2013-08-24 04:56:00,
2013-08-24 01:01:00,64.2,58.3,29.17,SW,225,0.0,0.0,81,0.00,,---,0.00,VWS V13.01,2013-08-24 05:01:00,
2013-08-24 01:06:00,64.2,58.3,29.17,SW,225,0.0,0.0,81,0.00,,---,0.00,VWS V13.01,2013-08-24 05:06:00,
2013-08-24 01:11:00,64.0,58.1,29.17,SW,225,0.0,0.0,81,0.00,,---,0.00,VWS V13.01,2013-08-24 05:11:00,
2013-08-24 01:16:00,64.0,58.1,29.17,SW,225,0.0,0.0,81,0.00,,---,0.00,VWS V13.01,2013-08-24 05:16:00,
2013-08-24 01:21:00,63.9,57.9,29.17,SW,225,0.0,0.0,81,0.00,,---,0.00,VWS V13.01,2013-08-24 05:21:00,
2013-08-24 01:26:00,63.9,57.9,29.17,SW,225,0.0,0.0,81,0.00,,---,0.00,VWS V13.01,2013-08-24 05:26:00,
2013-08-24 01:31:00,63.9,57.9,29.17,SW,225,0.0,0.0,81,0.00,,---,0.00,VWS V13.01,2013-08-24 05:31:00,
2013-08-24 01:36:00,63.9,57.9,29.17,SW,225,0.0,0.0,81,0.00,,---,0.00,VWS V13.01,2013-08-24 05:36:00,
2013-08-24 01:41:00,63.9,57.9,29.17,SW,225,0.0,0.0,81,0.00,,---,0.00,VWS V13.01,2013-08-24 05:41:00,
2013-08-24 01:46:00,63.5,57.6,29.17,SW,225,0.0,0.0,81,0.00,,---,0.00,VWS V13.01,2013-08-24 05:46:00,
2013-08-24 01:51:00,63.5,57.6,29.14,SW,225,0.0,0.0,81,0.00,,---,0.00,VWS V13.01,2013-08-24 05:51:00,
2013-08-24 01:57:00,63.5,57.6,29.14,SW,225,0.0,0.0,81,0.00,,---,0.00,VWS V13.01,2013-08-24 05:57:00,
2013-08-24 02:02:00,63.3,57.4,29.17,SW,225,0.0,0.0,81,0.00,,---,0.00,VWS V13.01,2013-08-24 06:02:00,
2013-08-24 02:07:00,63.3,57.4,29.17,SW,225,0.0,0.0,81,0.00,,---,0.00,VWS V13.01,2013-08-24 06:07:00,
2013-08-24 02:12:00,63.1,57.2,29.17,SW,225,0.0,0.0,81,0.00,,---,0.00,VWS V13.01,2013-08-24 06:12:00,
2013-08-24 02:17:00,63.1,57.2,29.17,SW,225,0.0,0.0,81,0.00,,---,0.00,VWS V13.01,2013-08-24 06:17:00,
2013-08-24 02:22:00,63.1,57.2,29.17,SW,225,0.0,0.0,81,0.00,,---,0.00,VWS V13.01,2013-08-24 06:22:00,
2013-08-24 02:27:00,63.0,57.0,29.17,SW,225,0.0,0.0,81,0.00,,---,0.00,VWS V13.01,2013-08-24 06:27:00,
2013-08-24 02:32:00,63.0,57.0,29.17,SW,225,0.0,0.0,81,0.00,,---,0.00,VWS V13.01,2013-08-24 06:32:00,
2013-08-24 02:37:00,62.8,56.9,29.17,SW,225,0.0,0.0,81,0.00,,---,0.00,VWS V13.01,2013-08-24 06:37:00,
2013-08-24 02:42:00,62.8,56.9,29.17,SW,225,0.0,0.0,81,0.00,,---,0.00,VWS V13.01,2013-08-24 06:42:00,
2013-08-24 02:47:00,62.6,56.7,29.17,SW,225,0.0,0.0,81,0.00,,---,0.00,VWS V13.01,2013-08-24 06:47:00,
2013-08-24 02:52:00,62.6,56.7,29.17,SW,225,0.0,0.0,81,0.00,,---,0.00,VWS V13.01,2013-08-24 06:52:00,
2013-08-24 02:57:00,62.8,56.9,29.17,SW,225,0.0,0.0,81,0.00,,---,0.00,VWS V13.01,2013-08-24 06:57:00,
2013-08-24 03:02:00,63.0,57.0,29.17,SW,225,0.0,0.0,81,0.00,,---,0.00,VWS V13.01,2013-08-24 07:02:00,
2013-08-24 03:07:00,63.0,57.0,29.17,SW,225,0.0,0.0,81,0.00,,---,0.00,VWS V13.01,2013-08-24 07:07:00,
2013-08-24 03:12:00,63.0,57.0,29.17,SW,225,0.0,0.0,81,0.00,,---,0.00,VWS V13.01,2013-08-24 07:12:00,
2013-08-24 03:17:00,63.1,57.2,29.17,SW,225,0.0,0.0,81,0.00,,---,0.00,VWS V13.01,2013-08-24 07:17:00,
2013-08-24 03:22:00,63.3,57.4,29.17,SW,225,0.0,0.0,81,0.00,,---,0.00,VWS V13.01,2013-08-24 07:22:00,
2013-08-24 03:27:00,63.1,57.2,29.17,SW,225,0.0,0.0,81,0.00,,---,0.00,VWS V13.01,2013-08-24 07:27:00,
2013-08-24 03:32:00,63.3,57.4,29.17,SW,225,0.0,0.0,81,0.00,,---,0.00,VWS V13.01,2013-08-24 07:32:00,
2013-08-24 03:37:00,63.3,57.4,29.17,SW,225,0.0,0.0,81,0.00,,---,0.00,VWS V13.01,2013-08-24 07:37:00,
2013-08-24 03:42:00,63.3,57.4,29.17,SW,225,0.0,0.0,81,0.00,,---,0.00,VWS V13.01,2013-08-24 07:42:00,
2013-08-24 03:47:00,63.3,57.4,29.17,SW,225,0.0,0.0,81,0.00,,---,0.00,VWS V13.01,2013-08-24 07:47:00,
2013-08-24 03:52:00,63.3,57.4,29.17,SW,225,0.0,0.0,81,0.00,,---,0.00,VWS V13.01,2013-08-24 07:52:00,
2013-08-24 03:57:00,63.1,57.2,29.17,SW,225,0.0,0.0,81,0.00,,---,0.00,VWS V13.01,2013-08-24 07:57:00,
2013-08-24 04:02:00,63.0,57.0,29.17,SW,225,0.0,0.0,81,0.00,,---,0.00,VWS V13.01,2013-08-24 08:02:00,
2013-08-24 04:08:00,62.8,56.9,29.17,SW,225,0.0,0.0,81,0.00,,---,0.00,VWS V13.01,2013-08-24 08:08:00,
2013-08-24 04:13:00,62.6,56.7,29.17,SW,225,0.0,0.0,81,0.00,,---,0.00,VWS V13.01,2013-08-24 08:13:00,
2013-08-24 04:18:00,62.6,56.7,29.20,SW,225,0.0,0.0,81,0.00,,---,0.00,VWS V13.01,2013-08-24 08:18:00,
2013-08-24 04:23:00,62.4,56.9,29.20,SW,225,0.0,0.0,82,0.00,,---,0.00,VWS V13.01,2013-08-24 08:23:00,
2013-08-24 04:28:00,62.2,56.7,29.20,SW,225,0.0,0.0,82,0.00,,---,0.00,VWS V13.01,2013-08-24 08:28:00,
2013-08-24 04:33:00,62.2,56.7,29.20,SW,225,0.0,0.0,82,0.00,,---,0.00,VWS V13.01,2013-08-24 08:33:00,
2013-08-24 04:38:00,62.2,56.7,29.20,SW,225,0.0,0.0,82,0.00,,---,0.00,VWS V13.01,2013-08-24 08:38:00,
2013-08-24 04:43:00,62.2,56.7,29.20,SW,225,0.0,0.0,82,0.00,,---,0.00,VWS V13.01,2013-08-24 08:43:00,
2013-08-24 04:48:00,62.2,56.7,29.20,SW,225,0.0,0.0,82,0.00,,---,0.00,VWS V13.01,2013-08-24 08:48:00,
2013-08-24 04:53:00,62.2,56.7,29.20,SW,225,0.0,0.0,82,0.00,,---,0.00,VWS V13.01,2013-08-24 08:53:00,
2013-08-24 04:58:00,62.2,56.7,29.20,SW,225,0.0,0.0,82,0.00,,---,0.00,VWS V13.01,2013-08-24 08:58:00,
2013-08-24 05:03:00,62.2,56.7,29.20,SW,225,0.0,0.0,82,0.00,,---,0.00,VWS V13.01,2013-08-24 09:03:00,
2013-08-24 05:08:00,62.2,56.7,29.20,SW,225,0.0,0.0,82,0.00,,---,0.00,VWS V13.01,2013-08-24 09:08:00,
2013-08-24 05:13:00,62.2,56.7,29.20,SW,225,0.0,0.0,82,0.00,,---,0.00,VWS V13.01,2013-08-24 09:13:00,
2013-08-24 05:18:00,62.4,56.9,29.20,SW,225,0.0,0.0,82,0.00,,---,0.00,VWS V13.01,2013-08-24 09:18:00,
2013-08-24 05:23:00,62.4,56.9,29.20,SW,225,0.0,0.0,82,0.00,,---,0.00,VWS V13.01,2013-08-24 09:23:00,
2013-08-24 05:28:00,62.4,56.9,29.20,SW,225,0.0,0.0,82,0.00,,---,0.00,VWS V13.01,2013-08-24 09:28:00,
2013-08-24 05:33:00,62.4,56.9,29.20,SW,225,0.0,0.0,82,0.00,,---,0.00,VWS V13.01,2013-08-24 09:33:00,
2013-08-24 05:38:00,62.4,56.9,29.20,SW,225,0.0,0.0,82,0.00,,---,0.00,VWS V13.01,2013-08-24 09:38:00,
2013-08-24 05:43:00,62.6,56.7,29.20,SW,225,0.0,0.0,81,0.00,,---,0.00,VWS V13.01,2013-08-24 09:43:00,
2013-08-24 05:48:00,62.6,56.7,29.20,SW,225,0.0,0.0,81,0.00,,---,0.00,VWS V13.01,2013-08-24 09:48:00,
2013-08-24 05:53:00,62.6,56.7,29.20,SW,225,0.0,0.0,81,0.00,,---,0.00,VWS V13.01,2013-08-24 09:53:00,
2013-08-24 05:58:00,62.6,56.7,29.20,SW,225,0.0,0.0,81,0.00,,---,0.00,VWS V13.01,2013-08-24 09:58:00,
2013-08-24 06:03:00,62.6,56.7,29.20,SW,225,0.0,0.0,81,0.00,,---,0.00,VWS V13.01,2013-08-24 10:03:00,
2013-08-24 06:09:00,62.4,56.9,29.20,SW,225,0.0,0.0,82,0.00,,---,0.00,VWS V13.01,2013-08-24 10:09:00,
2013-08-24 06:14:00,62.6,56.7,29.20,SW,225,0.0,0.0,81,0.00,,---,0.00,VWS V13.01,2013-08-24 10:14:00,
2013-08-24 06:19:00,62.6,56.7,29.23,SW,225,0.0,0.0,81,0.00,,---,0.00,VWS V13.01,2013-08-24 10:19:00,
2013-08-24 06:24:00,62.4,56.9,29.23,SW,225,0.0,0.0,82,0.00,,---,0.00,VWS V13.01,2013-08-24 10:24:00,
2013-08-24 06:29:00,62.4,56.9,29.23,SW,225,0.0,0.0,82,0.00,,---,0.00,VWS V13.01,2013-08-24 10:29:00,
2013-08-24 06:34:00,62.4,56.5,29.23,SW,225,0.0,0.0,81,0.00,,---,0.00,VWS V13.01,2013-08-24 10:34:00,
2013-08-24 06:39:00,62.2,56.3,29.23,SW,225,0.0,0.0,81,0.00,,---,0.00,VWS V13.01,2013-08-24 10:39:00,
2013-08-24 06:44:00,62.2,56.3,29.23,SW,225,0.0,0.0,81,0.00,,---,0.00,VWS V13.01,2013-08-24 10:44:00,
2013-08-24 06:49:00,62.2,56.3,29.23,SW,225,0.0,0.0,81,0.00,,---,0.00,VWS V13.01,2013-08-24 10:49:00,
2013-08-24 06:54:00,62.2,56.3,29.23,SW,225,0.0,0.0,81,0.00,,---,0.00,VWS V13.01,2013-08-24 10:54:00,
2013-08-24 06:59:00,62.2,56.3,29.23,SW,225,0.0,0.0,81,0.00,,---,0.00,VWS V13.01,2013-08-24 10:59:00,
2013-08-24 07:04:00,62.2,56.3,29.23,SW,225,0.0,0.0,81,0.00,,---,0.54,VWS V13.01,2013-08-24 11:04:00,
2013-08-24 07:09:00,62.4,56.5,29.23,SW,225,0.0,0.0,81,0.00,,---,0.00,VWS V13.01,2013-08-24 11:09:00,
2013-08-24 07:14:00,62.4,56.5,29.23,SW,225,0.0,0.0,81,0.00,,---,0.00,VWS V13.01,2013-08-24 11:14:00,
2013-08-24 07:19:00,62.4,56.5,29.23,SW,225,0.0,0.0,81,0.00,,---,0.00,VWS V13.01,2013-08-24 11:19:00,
2013-08-24 07:24:00,62.4,56.5,29.23,SW,225,0.0,0.0,81,0.00,,---,0.00,VWS V13.01,2013-08-24 11:24:00,
2013-08-24 07:29:00,62.6,56.7,29.23,SW,225,0.0,0.0,81,0.00,,---,0.00,VWS V13.01,2013-08-24 11:29:00,
2013-08-24 07:34:00,62.6,56.7,29.26,SW,225,0.0,0.0,81,0.00,,---,0.00,VWS V13.01,2013-08-24 11:34:00,
2013-08-24 07:39:00,62.8,56.9,29.26,SW,225,0.0,0.0,81,0.00,,---,0.00,VWS V13.01,2013-08-24 11:39:00,
2013-08-24 07:44:00,63.0,57.0,29.26,SW,225,0.0,0.0,81,0.00,,---,0.00,VWS V13.01,2013-08-24 11:44:00,
2013-08-24 07:49:00,62.8,56.9,29.26,SW,225,0.0,0.0,81,0.00,,---,0.00,VWS V13.01,2013-08-24 11:49:00,
2013-08-24 07:54:00,62.8,56.9,29.26,SW,225,0.0,0.0,81,0.00,,---,0.00,VWS V13.01,2013-08-24 11:54:00,
2013-08-24 07:59:00,63.0,57.0,29.26,SW,225,0.0,0.0,81,0.00,,---,0.00,VWS V13.01,2013-08-24 11:59:00,
2013-08-24 08:04:00,63.0,57.0,29.26,SW,225,0.0,0.0,81,0.00,,---,0.00,VWS V13.01,2013-08-24 12:04:00,
2013-08-24 08:09:00,63.1,57.2,29.26,SW,225,0.0,0.0,81,0.00,,---,0.00,VWS V13.01,2013-08-24 12:09:00,
2013-08-24 08:15:00,63.1,57.2,29.26,SW,225,0.0,0.0,81,0.00,,---,0.00,VWS V13.01,2013-08-24 12:15:00,
2013-08-24 08:20:00,63.1,57.2,29.26,SW,225,0.0,0.0,81,0.00,,---,0.00,VWS V13.01,2013-08-24 12:20:00,
2013-08-24 08:25:00,63.1,57.2,29.26,SW,225,0.0,0.0,81,0.00,,---,0.00,VWS V13.01,2013-08-24 12:25:00,
2013-08-24 08:30:00,63.3,57.4,29.26,SW,225,0.0,0.0,81,0.00,,---,0.00,VWS V13.01,2013-08-24 12:30:00,
2013-08-24 08:35:00,63.3,57.4,29.26,SW,225,0.0,0.0,81,0.00,,---,0.00,VWS V13.01,2013-08-24 12:35:00,
2013-08-24 08:40:00,63.1,57.2,29.26,SW,225,0.0,0.0,81,0.00,,---,0.00,VWS V13.01,2013-08-24 12:40:00,
2013-08-24 08:45:00,63.1,57.2,29.26,SW,225,0.0,0.0,81,0.00,,---,0.00,VWS V13.01,2013-08-24 12:45:00,
2013-08-24 08:50:00,63.1,57.2,29.26,SW,225,0.0,0.0,81,0.00,,---,0.00,VWS V13.01,2013-08-24 12:50:00,
2013-08-24 08:55:00,63.3,57.4,29.26,SW,225,0.0,0.0,81,0.00,,---,0.00,VWS V13.01,2013-08-24 12:55:00,
2013-08-24 09:00:00,63.3,57.4,29.26,SW,225,0.0,0.0,81,0.00,,---,0.00,VWS V13.01,2013-08-24 13:00:00,
2013-08-24 09:05:00,63.3,57.4,29.29,SW,225,0.0,0.0,81,0.00,,---,0.00,VWS V13.01,2013-08-24 13:05:00,
2013-08-24 09:10:00,63.5,57.6,29.29,SW,225,0.0,0.0,81,0.00,,---,0.00,VWS V13.01,2013-08-24 13:10:00,
2013-08-24 09:15:00,63.5,57.6,29.29,SW,225,0.0,0.0,81,0.00,,---,0.00,VWS V13.01,2013-08-24 13:15:00,
2013-08-24 09:20:00,63.7,57.8,29.29,SW,225,0.0,0.0,81,0.00,,---,0.00,VWS V13.01,2013-08-24 13:20:00,
2013-08-24 09:25:00,63.9,57.9,29.29,SW,225,0.0,0.0,81,0.00,,---,0.00,VWS V13.01,2013-08-24 13:25:00,
2013-08-24 09:30:00,64.0,58.1,29.29,SW,225,0.0,0.0,81,0.00,,---,0.00,VWS V13.01,2013-08-24 13:30:00,
2013-08-24 09:35:00,64.2,58.3,29.29,SW,225,0.0,0.0,81,0.00,,---,0.00,VWS V13.01,2013-08-24 13:35:00,
2013-08-24 09:40:00,64.8,58.5,29.29,SW,225,0.0,0.0,80,0.00,,---,0.00,VWS V13.01,2013-08-24 13:40:00,
2013-08-24 09:45:00,65.1,58.8,29.29,SW,225,0.0,0.0,80,0.00,,---,0.00,VWS V13.01,2013-08-24 13:45:00,
2013-08-24 09:50:00,65.1,58.8,29.29,SW,225,0.0,0.0,80,0.00,,---,0.00,VWS V13.01,2013-08-24 13:50:00,
2013-08-24 09:55:00,65.8,59.5,29.29,SW,225,0.0,0.0,80,0.00,,---,0.00,VWS V13.01,2013-08-24 13:55:00,
2013-08-24 10:00:00,66.2,59.9,29.29,SW,225,0.0,0.0,80,0.00,,---,0.00,VWS V13.01,2013-08-24 14:00:00,
2013-08-24 10:05:00,66.4,60.0,29.29,SW,225,0.0,0.0,80,0.00,,---,0.00,VWS V13.01,2013-08-24 14:05:00,
2013-08-24 10:10:00,66.6,60.2,29.29,SW,225,0.0,0.0,80,0.00,,---,0.00,VWS V13.01,2013-08-24 14:10:00,
2013-08-24 10:16:00,66.6,60.2,29.29,SW,225,0.0,0.0,80,0.00,,---,0.00,VWS V13.01,2013-08-24 14:16:00,
2013-08-24 10:21:00,66.9,60.6,29.29,SW,225,0.0,0.0,80,0.00,,---,0.00,VWS V13.01,2013-08-24 14:21:00,
2013-08-24 10:26:00,66.9,60.6,29.29,SW,225,0.0,0.0,80,0.00,,---,0.00,VWS V13.01,2013-08-24 14:26:00,
2013-08-24 10:31:00,67.5,61.1,29.29,SW,225,0.0,0.0,80,0.00,,---,0.00,VWS V13.01,2013-08-24 14:31:00,
2013-08-24 10:36:00,67.8,61.4,29.29,SW,225,0.0,0.0,80,0.00,,---,0.00,VWS V13.01,2013-08-24 14:36:00,
2013-08-24 10:41:00,67.8,61.4,29.29,SW,225,0.0,0.0,80,0.00,,---,0.00,VWS V13.01,2013-08-24 14:41:00,
2013-08-24 10:46:00,67.8,61.4,29.29,SW,225,0.0,0.0,80,0.00,,---,0.00,VWS V13.01,2013-08-24 14:46:00,
2013-08-24 10:51:00,68.2,61.4,29.29,SW,225,0.0,0.0,79,0.00,,---,0.00,VWS V13.01,2013-08-24 14:51:00,
2013-08-24 10:56:00,68.7,62.0,29.29,SW,225,0.0,0.0,79,0.00,,---,0.00,VWS V13.01,2013-08-24 14:56:00,
2013-08-24 11:01:00,68.9,62.1,29.29,SW,225,0.0,0.0,79,0.00,,---,0.00,VWS V13.01,2013-08-24 15:01:00,
2013-08-24 11:06:00,68.9,61.8,29.29,SW,225,0.0,0.0,78,0.00,,---,0.00,VWS V13.01,2013-08-24 15:06:00,
2013-08-24 11:11:00,68.7,61.2,29.29,SW,225,0.0,0.0,77,0.00,,---,0.00,VWS V13.01,2013-08-24 15:11:00,
2013-08-24 11:16:00,68.9,61.0,29.29,SW,225,0.0,0.0,76,0.00,,---,0.00,VWS V13.01,2013-08-24 15:16:00,
2013-08-24 11:21:00,69.1,60.1,29.29,SW,225,0.0,0.0,73,0.00,,---,0.00,VWS V13.01,2013-08-24 15:21:00,
2013-08-24 11:26:00,68.5,55.9,29.29,SW,225,0.0,0.0,64,0.00,,---,0.00,VWS V13.01,2013-08-24 15:26:00,
2013-08-24 11:31:00,68.9,55.8,29.29,SW,225,0.0,0.0,63,0.00,,---,0.00,VWS V13.01,2013-08-24 15:31:00,
2013-08-24 11:36:00,68.9,51.1,29.29,SW,225,0.0,0.0,53,0.00,,---,0.00,VWS V13.01,2013-08-24 15:36:00,
2013-08-24 11:41:00,69.3,49.3,29.29,SW,225,0.0,0.0,49,0.00,,---,0.00,VWS V13.01,2013-08-24 15:41:00,
2013-08-24 11:46:00,69.4,45.4,29.29,SW,225,0.0,0.0,42,0.00,,---,0.00,VWS V13.01,2013-08-24 15:46:00,
2013-08-24 11:51:00,69.8,42.4,29.29,SW,225,0.0,0.0,37,0.00,,---,0.00,VWS V13.01,2013-08-24 15:51:00,
2013-08-24 11:56:00,70.2,43.4,29.29,SW,225,0.0,0.0,38,0.00,,---,0.00,VWS V13.01,2013-08-24 15:56:00,
2013-08-24 12:01:00,70.5,43.0,29.29,SW,225,0.0,0.0,37,0.00,,---,0.00,VWS V13.01,2013-08-24 16:01:00,
2013-08-24 12:06:00,70.7,43.2,29.29,SW,225,0.0,0.0,37,0.00,,---,0.00,VWS V13.01,2013-08-24 16:06:00,
2013-08-24 12:11:00,70.9,40.4,29.29,SW,225,0.0,0.0,33,0.00,,---,0.00,VWS V13.01,2013-08-24 16:11:00,
2013-08-24 12:17:00,71.2,39.9,29.29,SW,225,0.0,0.0,32,0.00,,---,0.00,VWS V13.01,2013-08-24 16:17:00,
2013-08-24 12:22:00,71.8,40.4,29.29,SW,225,0.0,0.0,32,0.00,,---,0.00,VWS V13.01,2013-08-24 16:22:00,
2013-08-24 12:27:00,71.8,40.4,29.29,SW,225,0.0,0.0,32,0.00,,---,0.00,VWS V13.01,2013-08-24 16:27:00,
2013-08-24 12:32:00,71.8,40.4,29.29,SW,225,0.0,0.0,32,0.00,,---,0.00,VWS V13.01,2013-08-24 16:32:00,
2013-08-24 12:37:00,71.8,40.4,29.29,SW,225,0.0,0.0,32,0.00,,---,0.00,VWS V13.01,2013-08-24 16:37:00,
2013-08-24 12:42:00,72.7,36.8,29.29,SW,225,0.0,0.0,27,0.00,,---,0.00,VWS V13.01,2013-08-24 16:42:00,
2013-08-24 12:47:00,73.2,36.3,29.29,SW,225,0.0,0.0,26,0.00,,---,0.00,VWS V13.01,2013-08-24 16:47:00,
2013-08-24 12:52:00,73.4,34.5,29.29,SW,225,0.0,0.0,24,0.00,,---,0.00,VWS V13.01,2013-08-24 16:52:00,
2013-08-24 12:57:00,73.8,33.7,29.29,SW,225,0.0,0.0,23,0.00,,---,0.00,VWS V13.01,2013-08-24 16:57:00,
2013-08-24 13:02:00,74.1,34.0,29.29,SW,225,0.0,0.0,23,0.00,,---,0.00,VWS V13.01,2013-08-24 17:02:00,
2013-08-24 13:07:00,74.3,35.2,29.29,SW,225,0.0,0.0,24,0.00,,---,0.00,VWS V13.01,2013-08-24 17:07:00,
2013-08-24 13:12:00,75.6,35.2,29.29,SW,225,0.0,0.0,23,0.00,,---,0.00,VWS V13.01,2013-08-24 17:12:00,
2013-08-24 13:17:00,77.2,36.5,29.29,SW,225,0.0,0.0,23,0.00,,---,0.00,VWS V13.01,2013-08-24 17:17:00,
2013-08-24 13:22:00,78.4,37.6,29.29,SW,225,0.0,0.0,23,0.00,,---,0.00,VWS V13.01,2013-08-24 17:22:00,
2013-08-24 13:27:00,78.8,35.6,29.29,SW,225,0.0,0.0,21,0.00,,---,0.00,VWS V13.01,2013-08-24 17:27:00,
2013-08-24 13:32:00,79.5,36.2,29.29,SW,225,0.0,0.0,21,0.00,,---,0.00,VWS V13.01,2013-08-24 17:32:00,
2013-08-24 13:37:00,80.1,36.7,29.29,SW,225,0.0,0.0,21,0.00,,---,0.00,VWS V13.01,2013-08-24 17:37:00,
2013-08-24 13:42:00,80.6,35.9,29.29,SW,225,0.0,0.0,20,0.00,,---,0.00,VWS V13.01,2013-08-24 17:42:00,
2013-08-24 13:47:00,80.2,35.6,29.29,SW,225,0.0,0.0,20,0.00,,---,0.00,VWS V13.01,2013-08-24 17:47:00,
2013-08-24 13:52:00,81.5,36.6,29.29,SW,225,0.0,0.0,20,0.00,,---,0.00,VWS V13.01,2013-08-24 17:52:00,
2013-08-24 13:57:00,82.2,37.2,29.29,SW,225,0.0,0.0,20,0.00,,---,0.00,VWS V13.01,2013-08-24 17:57:00,
2013-08-24 14:02:00,82.2,37.2,29.29,SW,225,0.0,0.0,20,0.00,,---,0.00,VWS V13.01,2013-08-24 18:02:00,
2013-08-24 14:07:00,82.9,36.5,29.29,SW,225,0.0,0.0,19,0.00,,---,0.00,VWS V13.01,2013-08-24 18:07:00,
2013-08-24 14:12:00,83.7,37.1,29.29,SW,225,0.0,0.0,19,0.00,,---,0.00,VWS V13.01,2013-08-24 18:12:00,
2013-08-24 14:17:00,85.1,38.2,29.29,SW,225,0.0,0.0,19,0.00,,---,0.00,VWS V13.01,2013-08-24 18:17:00,
2013-08-24 14:23:00,86.0,37.6,29.29,SW,225,0.0,0.0,18,0.00,,---,0.00,VWS V13.01,2013-08-24 18:23:00,
2013-08-24 14:28:00,87.3,38.6,29.29,SW,225,0.0,0.0,18,0.00,,---,0.00,VWS V13.01,2013-08-24 18:28:00,
2013-08-24 14:33:00,87.3,38.6,29.29,SW,225,0.0,0.0,18,0.00,,---,0.00,VWS V13.01,2013-08-24 18:33:00,
2013-08-24 14:38:00,85.1,33.9,29.29,SW,225,0.0,0.0,16,0.00,,---,0.00,VWS V13.01,2013-08-24 18:38:00,
2013-08-24 14:43:00,84.2,33.2,29.29,SW,225,0.0,0.0,16,0.00,,---,0.00,VWS V13.01,2013-08-24 18:43:00,
2013-08-24 14:48:00,84.9,33.8,29.29,SW,225,0.0,0.0,16,0.00,,---,0.00,VWS V13.01,2013-08-24 18:48:00,
2013-08-24 14:53:00,84.9,33.8,29.29,SW,225,0.0,0.0,16,0.00,,---,0.00,VWS V13.01,2013-08-24 18:53:00,
2013-08-24 14:58:00,86.7,35.2,29.29,SW,225,0.0,0.0,16,0.00,,---,0.00,VWS V13.01,2013-08-24 18:58:00,
2013-08-24 15:03:00,85.8,34.5,29.29,SW,225,0.0,0.0,16,0.00,,---,0.00,VWS V13.01,2013-08-24 19:03:00,
2013-08-24 15:08:00,86.5,35.1,29.29,SW,225,0.0,0.0,16,0.00,,---,0.00,VWS V13.01,2013-08-24 19:08:00,
2013-08-24 15:13:00,86.9,35.3,29.29,SW,225,0.0,0.0,16,0.00,,---,0.00,VWS V13.01,2013-08-24 19:13:00,
2013-08-24 15:18:00,85.6,29.2,29.29,SW,225,0.0,0.0,13,0.00,,---,0.00,VWS V13.01,2013-08-24 19:18:00,
2013-08-24 15:23:00,87.3,30.5,29.29,SW,225,0.0,0.0,13,0.00,,---,0.00,VWS V13.01,2013-08-24 19:23:00,
2013-08-24 15:28:00,86.2,29.6,29.29,SW,225,0.0,0.0,13,0.00,,---,0.00,VWS V13.01,2013-08-24 19:28:00,
2013-08-24 15:33:00,86.5,29.9,29.29,SW,225,0.0,0.0,13,0.00,,---,0.00,VWS V13.01,2013-08-24 19:33:00,
2013-08-24 15:38:00,86.4,29.8,29.29,SW,225,0.0,0.0,13,0.00,,---,0.00,VWS V13.01,2013-08-24 19:38:00,
2013-08-24 15:43:00,87.8,30.9,29.29,SW,225,0.0,0.0,13,0.00,,---,0.00,VWS V13.01,2013-08-24 19:43:00,
2013-08-24 15:48:00,87.4,30.6,29.26,SW,225,0.0,0.0,13,0.00,,---,0.00,VWS V13.01,2013-08-24 19:48:00,
2013-08-24 15:53:00,86.4,29.8,29.26,SW,225,0.0,0.0,13,0.00,,---,0.00,VWS V13.01,2013-08-24 19:53:00,
2013-08-24 15:58:00,85.8,29.4,29.26,SW,225,0.0,0.0,13,0.00,,---,0.00,VWS V13.01,2013-08-24 19:58:00,
2013-08-24 16:03:00,82.2,28.3,29.26,SW,225,0.0,0.0,14,0.00,,---,0.00,VWS V13.01,2013-08-24 20:03:00,
2013-08-24 16:08:00,84.0,29.8,29.26,SW,225,0.0,0.0,14,0.00,,---,0.00,VWS V13.01,2013-08-24 20:08:00,
2013-08-24 16:13:00,84.2,28.1,29.26,SW,225,0.0,0.0,13,0.00,,---,0.00,VWS V13.01,2013-08-24 20:13:00,
2013-08-24 16:18:00,84.9,28.6,29.26,SW,225,0.0,0.0,13,0.00,,---,0.00,VWS V13.01,2013-08-24 20:18:00,
2013-08-24 16:24:00,84.4,28.2,29.26,SW,225,0.0,0.0,13,0.00,,---,0.00,VWS V13.01,2013-08-24 20:24:00,
2013-08-24 16:29:00,85.5,29.1,29.26,SW,225,0.0,0.0,13,0.00,,---,0.00,VWS V13.01,2013-08-24 20:29:00,
2013-08-24 16:34:00,86.5,29.9,29.29,SW,225,0.0,0.0,13,0.00,,---,0.00,VWS V13.01,2013-08-24 20:34:00,
2013-08-24 16:39:00,84.9,28.6,29.29,SW,225,0.0,0.0,13,0.00,,---,0.00,VWS V13.01,2013-08-24 20:39:00,
2013-08-24 16:44:00,84.4,33.3,29.29,SW,225,0.0,0.0,16,0.00,,---,0.00,VWS V13.01,2013-08-24 20:44:00,
2013-08-24 16:49:00,84.2,33.2,29.26,SW,225,0.0,0.0,16,0.00,,---,0.00,VWS V13.01,2013-08-24 20:49:00,
2013-08-24 16:54:00,84.4,33.3,29.26,SW,225,0.0,0.0,16,0.00,,---,0.00,VWS V13.01,2013-08-24 20:54:00,
2013-08-24 16:59:00,84.0,33.0,29.26,SW,225,0.0,0.0,16,0.00,,---,0.00,VWS V13.01,2013-08-24 20:59:00,
2013-08-24 17:04:00,83.3,32.5,29.26,SW,225,0.0,0.0,16,0.00,,---,0.00,VWS V13.01,2013-08-24 21:04:00,
2013-08-24 17:09:00,83.3,32.5,29.26,SW,225,0.0,0.0,16,0.00,,---,0.00,VWS V13.01,2013-08-24 21:09:00,
2013-08-24 17:14:00,82.4,36.0,29.26,SW,225,0.0,0.0,19,0.00,,---,0.00,VWS V13.01,2013-08-24 21:14:00,
2013-08-24 17:19:00,82.2,37.2,29.26,SW,225,0.0,0.0,20,0.00,,---,0.00,VWS V13.01,2013-08-24 21:19:00,
2013-08-24 17:24:00,81.3,36.5,29.26,SW,225,0.0,0.0,20,0.00,,---,0.00,VWS V13.01,2013-08-24 21:24:00,
2013-08-24 17:29:00,80.1,35.4,29.26,SW,225,0.0,0.0,20,0.00,,---,0.00,VWS V13.01,2013-08-24 21:29:00,
2013-08-24 17:34:00,77.9,34.9,29.26,SW,225,0.0,0.0,21,0.00,,---,0.00,VWS V13.01,2013-08-24 21:34:00,
2013-08-24 17:39:00,76.3,35.8,29.26,SW,225,0.0,0.0,23,0.00,,---,0.00,VWS V13.01,2013-08-24 21:39:00,
2013-08-24 17:44:00,75.0,36.8,29.26,SW,225,0.0,0.0,25,0.00,,---,0.00,VWS V13.01,2013-08-24 21:44:00,
2013-08-24 17:49:00,73.8,37.7,29.26,SW,225,0.0,0.0,27,0.00,,---,0.00,VWS V13.01,2013-08-24 21:49:00,
2013-08-24 17:54:00,72.9,38.8,29.26,SW,225,0.0,0.0,29,0.00,,---,0.00,VWS V13.01,2013-08-24 21:54:00,
2013-08-24 17:59:00,72.7,38.6,29.26,SW,225,0.0,0.0,29,0.00,,---,0.00,VWS V13.01,2013-08-24 21:59:00,
2013-08-24 18:04:00,72.0,39.7,29.26,SW,225,0.0,0.0,31,0.00,,---,0.00,VWS V13.01,2013-08-24 22:04:00,
2013-08-24 18:09:00,71.8,40.4,29.26,SW,225,0.0,0.0,32,0.00,,---,0.00,VWS V13.01,2013-08-24 22:09:00,
2013-08-24 18:14:00,71.1,41.3,29.26,SW,225,0.0,0.0,34,0.00,,---,0.00,VWS V13.01,2013-08-24 22:14:00,
2013-08-24 18:19:00,71.1,41.3,29.26,SW,225,0.0,0.0,34,0.00,,---,0.00,VWS V13.01,2013-08-24 22:19:00,
2013-08-24 18:24:00,70.5,41.6,29.26,SW,225,0.0,0.0,35,0.00,,---,0.00,VWS V13.01,2013-08-24 22:24:00,
2013-08-24 18:30:00,70.2,41.3,29.26,SW,225,0.0,0.0,35,0.00,,---,0.00,VWS V13.01,2013-08-24 22:30:00,
2013-08-24 18:35:00,70.2,41.3,29.29,SW,225,0.0,0.0,35,0.00,,---,0.00,VWS V13.01,2013-08-24 22:35:00,
2013-08-24 18:40:00,70.0,42.5,29.29,SW,225,0.0,0.0,37,0.00,,---,0.00,VWS V13.01,2013-08-24 22:40:00,
2013-08-24 18:45:00,69.3,43.3,29.29,SW,225,0.0,0.0,39,0.00,,---,0.00,VWS V13.01,2013-08-24 22:45:00,
2013-08-24 18:50:00,69.1,43.8,29.26,SW,225,0.0,0.0,40,0.00,,---,0.00,VWS V13.01,2013-08-24 22:50:00,
2013-08-24 18:55:00,68.7,44.1,29.26,SW,225,0.0,0.0,41,0.00,,---,0.00,VWS V13.01,2013-08-24 22:55:00,
2013-08-24 19:00:00,68.2,44.2,29.26,SW,225,0.0,0.0,42,0.00,,---,0.00,VWS V13.01,2013-08-24 23:00:00,
2013-08-24 19:05:00,67.8,44.5,29.26,SW,225,0.0,0.0,43,0.00,,---,0.00,VWS V13.01,2013-08-24 23:05:00,
2013-08-24 19:10:00,67.6,44.4,29.26,SW,225,0.0,0.0,43,0.00,,---,0.00,VWS V13.01,2013-08-24 23:10:00,
2013-08-24 19:15:00,67.3,44.7,29.26,SW,225,0.0,0.0,44,0.00,,---,0.00,VWS V13.01,2013-08-24 23:15:00,
2013-08-24 19:20:00,67.1,44.5,29.29,SW,225,0.0,0.0,44,0.00,,---,0.00,VWS V13.01,2013-08-24 23:20:00,
2013-08-24 19:25:00,66.9,44.3,29.29,SW,225,0.0,0.0,44,0.00,,---,0.00,VWS V13.01,2013-08-24 23:25:00,
2013-08-24 19:30:00,66.9,44.9,29.29,SW,225,0.0,0.0,45,0.00,,---,0.00,VWS V13.01,2013-08-24 23:30:00,
2013-08-24 19:35:00,66.7,44.8,29.29,SW,225,0.0,0.0,45,0.00,,---,0.00,VWS V13.01,2013-08-24 23:35:00,
2013-08-24 19:40:00,66.7,44.8,29.29,SW,225,0.0,0.0,45,0.00,,---,0.00,VWS V13.01,2013-08-24 23:40:00,
2013-08-24 19:45:00,66.7,44.8,29.29,SW,225,0.0,0.0,45,0.00,,---,0.00,VWS V13.01,2013-08-24 23:45:00,
2013-08-24 19:50:00,66.2,43.7,29.29,SW,225,0.0,0.0,44,0.00,,---,0.00,VWS V13.01,2013-08-24 23:50:00,
2013-08-24 19:55:00,66.2,43.7,29.29,SW,225,0.0,0.0,44,0.00,,---,0.00,VWS V13.01,2013-08-24 23:55:00,
2013-08-24 20:00:00,66.0,42.9,29.29,SW,225,0.0,0.0,43,0.00,,---,0.00,VWS V13.01,2013-08-25 00:00:00,
2013-08-24 20:05:00,65.8,43.3,29.26,SW,225,0.0,0.0,44,0.00,,---,0.00,VWS V13.01,2013-08-25 00:05:00,
2013-08-24 20:10:00,65.5,43.0,29.26,SW,225,0.0,0.0,44,0.00,,---,0.00,VWS V13.01,2013-08-25 00:10:00,
2013-08-24 20:15:00,65.5,43.0,29.26,SW,225,0.0,0.0,44,0.00,,---,0.00,VWS V13.01,2013-08-25 00:15:00,
2013-08-24 20:20:00,65.5,43.0,29.29,SW,225,0.0,0.0,44,0.00,,---,0.00,VWS V13.01,2013-08-25 00:20:00,
2013-08-24 20:25:00,65.1,43.3,29.29,SW,225,0.0,0.0,45,0.00,,---,0.00,VWS V13.01,2013-08-25 00:25:00,
2013-08-24 20:30:00,64.9,43.1,29.29,SW,225,0.0,0.0,45,0.00,,---,0.00,VWS V13.01,2013-08-25 00:30:00,
2013-08-24 20:36:00,64.9,43.1,29.29,SW,225,0.0,0.0,45,0.00,,---,0.00,VWS V13.01,2013-08-25 00:36:00,
2013-08-24 20:41:00,64.6,42.2,29.29,SW,225,0.0,0.0,44,0.00,,---,0.00,VWS V13.01,2013-08-25 00:41:00,
2013-08-24 20:46:00,64.6,42.2,29.29,SW,225,0.0,0.0,44,0.00,,---,0.00,VWS V13.01,2013-08-25 00:46:00,
2013-08-24 20:51:00,64.4,42.0,29.29,SW,225,0.0,0.0,44,0.00,,---,0.00,VWS V13.01,2013-08-25 00:51:00,
2013-08-24 20:56:00,64.2,42.5,29.29,SW,225,0.0,0.0,45,0.00,,---,0.00,VWS V13.01,2013-08-25 00:56:00,
2013-08-24 21:01:00,63.9,42.7,29.29,SW,225,0.0,0.0,46,0.00,,---,0.00,VWS V13.01,2013-08-25 01:01:00,
2013-08-24 21:06:00,64.0,43.4,29.29,SW,225,0.0,0.0,47,0.00,,---,0.00,VWS V13.01,2013-08-25 01:06:00,
2013-08-24 21:11:00,64.0,44.5,29.29,SW,225,0.0,0.0,49,0.00,,---,0.00,VWS V13.01,2013-08-25 01:11:00,
2013-08-24 21:16:00,64.2,44.7,29.29,SW,225,0.0,0.0,49,0.00,,---,0.00,VWS V13.01,2013-08-25 01:16:00,
2013-08-24 21:21:00,64.2,44.1,29.32,SW,225,0.0,0.0,48,0.00,,---,0.00,VWS V13.01,2013-08-25 01:21:00,
2013-08-24 21:26:00,64.2,44.7,29.32,SW,225,0.0,0.0,49,0.00,,---,0.00,VWS V13.01,2013-08-25 01:26:00,
2013-08-24 21:31:00,64.0,44.0,29.32,SW,225,0.0,0.0,48,0.00,,---,0.00,VWS V13.01,2013-08-25 01:31:00,
2013-08-24 21:36:00,64.0,44.0,29.32,SW,225,0.0,0.0,48,0.00,,---,0.00,VWS V13.01,2013-08-25 01:36:00,
2013-08-24 21:41:00,63.7,44.2,29.32,SW,225,0.0,0.0,49,0.00,,---,0.00,VWS V13.01,2013-08-25 01:41:00,
2013-08-24 21:46:00,63.7,44.2,29.32,SW,225,0.0,0.0,49,0.00,,---,0.00,VWS V13.01,2013-08-25 01:46:00,
2013-08-24 21:51:00,63.1,44.2,29.32,SW,225,0.0,0.0,50,0.00,,---,0.00,VWS V13.01,2013-08-25 01:51:00,
2013-08-24 21:56:00,62.8,44.4,29.32,SW,225,0.0,0.0,51,0.00,,---,0.00,VWS V13.01,2013-08-25 01:56:00,
2013-08-24 22:01:00,62.6,44.2,29.32,SW,225,0.0,0.0,51,0.00,,---,0.00,VWS V13.01,2013-08-25 02:01:00,
2013-08-24 22:06:00,62.4,44.6,29.29,SW,225,0.0,0.0,52,0.00,,---,0.00,VWS V13.01,2013-08-25 02:06:00,
2013-08-24 22:11:00,62.6,45.7,29.29,SW,225,0.0,0.0,54,0.00,,---,0.00,VWS V13.01,2013-08-25 02:11:00,
2013-08-24 22:16:00,62.4,45.6,29.29,SW,225,0.0,0.0,54,0.00,,---,0.00,VWS V13.01,2013-08-25 02:16:00,
2013-08-24 22:21:00,62.2,45.4,29.32,SW,225,0.0,0.0,54,0.00,,---,0.00,VWS V13.01,2013-08-25 02:21:00,
2013-08-24 22:26:00,62.2,45.4,29.32,SW,225,0.0,0.0,54,0.00,,---,0.00,VWS V13.01,2013-08-25 02:26:00,
2013-08-24 22:31:00,61.9,46.0,29.32,SW,225,0.0,0.0,56,0.00,,---,0.00,VWS V13.01,2013-08-25 02:31:00,
2013-08-24 22:37:00,61.7,46.8,29.32,SW,225,0.0,0.0,58,0.00,,---,0.00,VWS V13.01,2013-08-25 02:37:00,
2013-08-24 22:42:00,61.7,46.8,29.32,SW,225,0.0,0.0,58,0.00,,---,0.00,VWS V13.01,2013-08-25 02:42:00,
2013-08-24 22:47:00,61.5,47.1,29.32,SW,225,0.0,0.0,59,0.00,,---,0.00,VWS V13.01,2013-08-25 02:47:00,
2013-08-24 22:52:00,61.3,47.3,29.32,SW,225,0.0,0.0,60,0.00,,---,0.00,VWS V13.01,2013-08-25 02:52:00,
2013-08-24 22:57:00,61.3,47.8,29.32,SW,225,0.0,0.0,61,0.00,,---,0.00,VWS V13.01,2013-08-25 02:57:00,
2013-08-24 23:02:00,61.3,48.2,29.32,SW,225,0.0,0.0,62,0.00,,---,0.00,VWS V13.01,2013-08-25 03:02:00,
2013-08-24 23:07:00,61.5,49.2,29.32,SW,225,0.0,0.0,64,0.00,,---,0.00,VWS V13.01,2013-08-25 03:07:00,
2013-08-24 23:12:00,61.5,49.2,29.32,SW,225,0.0,0.0,64,0.00,,---,0.00,VWS V13.01,2013-08-25 03:12:00,
2013-08-24 23:17:00,61.3,49.1,29.32,SW,225,0.0,0.0,64,0.00,,---,0.00,VWS V13.01,2013-08-25 03:17:00,
2013-08-24 23:22:00,61.3,49.1,29.32,SW,225,0.0,0.0,64,0.00,,---,0.00,VWS V13.01,2013-08-25 03:22:00,
2013-08-24 23:27:00,61.2,49.3,29.32,SW,225,0.0,0.0,65,0.00,,---,0.00,VWS V13.01,2013-08-25 03:27:00,
2013-08-24 23:32:00,61.0,49.2,29.32,SW,225,0.0,0.0,65,0.00,,---,0.00,VWS V13.01,2013-08-25 03:32:00,
2013-08-24 23:37:00,60.8,49.4,29.32,SW,225,0.0,0.0,66,0.00,,---,0.00,VWS V13.01,2013-08-25 03:37:00,
2013-08-24 23:42:00,60.6,49.6,29.32,SW,225,0.0,0.0,67,0.00,,---,0.00,VWS V13.01,2013-08-25 03:42:00,
2013-08-24 23:47:00,60.4,49.4,29.32,SW,225,0.0,0.0,67,0.00,,---,0.00,VWS V13.01,2013-08-25 03:47:00,
2013-08-24 23:52:00,60.4,49.4,29.32,SW,225,0.0,0.0,67,0.00,,---,0.00,VWS V13.01,2013-08-25 03:52:00,
2013-08-24 23:57:00,60.4,49.8,29.32,SW,225,0.0,0.0,68,0.00,,---,0.00,VWS V13.01,2013-08-25 03:57:00,